Time,TemperatureF,DewpointF,PressureIn,WindDirection,WindDirectionDegrees,WindSpeedMPH,WindSpeedGustMPH,Humidity,HourlyPrecipIn,Conditions,Clouds,dailyrainin,SoftwareType,DateUTC
2013-01-09 00:03:00,32.5,28.8,29.75,West,270,12.7,12.7,86,0.00,CLR,SKC,0.00,WeatherDisplay:10.37,2013-01-09 06:03:00,
2013-01-09 00:08:00,32.4,28.6,29.75,West,270,19.6,19.6,86,0.00,CLR,SKC,0.00,WeatherDisplay:10.37,2013-01-09 06:08:00,
2013-01-09 00:13:00,32.2,28.5,29.75,NW,315,11.5,11.5,86,0.00,CLR,SKC,0.00,WeatherDisplay:10.37,2013-01-09 06:13:00,
2013-01-09 00:18:00,32.0,28.3,29.75,West,270,15.0,15.0,86,0.00,CLR,SKC,0.00,WeatherDisplay:10.37,2013-01-09 06:18:00,
2013-01-09 00:23:00,32.0,28.3,29.75,West,270,16.1,16.1,86,0.00,CLR,SKC,0.00,WeatherDisplay:10.37,2013-01-09 06:23:00,
2013-01-09 00:28:00,32.0,28.3,29.75,NW,315,17.3,17.3,86,0.00,CLR,SKC,0.00,WeatherDisplay:10.37,2013-01-09 06:28:00,
2013-01-09 00:34:00,32.0,28.3,29.75,NW,315,12.7,12.7,86,0.00,CLR,SKC,0.00,WeatherDisplay:10.37,2013-01-09 06:34:00,
2013-01-09 00:39:00,31.8,28.1,29.75,West,270,16.1,16.1,86,0.00,CLR,SKC,0.00,WeatherDisplay:10.37,2013-01-09 06:39:00,
2013-01-09 00:44:00,31.8,28.1,29.75,NW,315,10.4,10.4,86,0.00,CLR,SKC,0.00,WeatherDisplay:10.37,2013-01-09 06:44:00,
2013-01-09 00:49:00,31.8,28.1,29.75,West,270,12.7,12.7,86,0.00,CLR,SKC,0.00,WeatherDisplay:10.37,2013-01-09 06:49:00,
2013-01-09 00:54:00,31.6,27.9,29.75,West,270,12.7,12.7,86,0.00,CLR,SKC,0.00,WeatherDisplay:10.37,2013-01-09 06:54:00,
2013-01-09 00:59:00,31.8,28.1,29.75,SW,225,17.3,17.3,86,0.00,CLR,SKC,0.00,WeatherDisplay:10.37,2013-01-09 06:59:00,
2013-01-09 01:05:00,31.8,28.1,29.75,SW,225,15.0,15.0,86,0.00,CLR,SKC,0.00,WeatherDisplay:10.37,2013-01-09 07:05:00,
2013-01-09 01:10:00,31.6,27.9,29.75,SW,225,13.8,13.8,86,0.00,CLR,SKC,0.00,WeatherDisplay:10.37,2013-01-09 07:10:00,
2013-01-09 01:15:00,31.6,27.9,29.75,NW,315,13.8,13.8,86,0.00,CLR,SKC,0.00,WeatherDisplay:10.37,2013-01-09 07:15:00,
2013-01-09 01:21:00,31.5,27.8,29.75,West,270,15.0,15.0,86,0.00,CLR,SKC,0.00,WeatherDisplay:10.37,2013-01-09 07:21:00,
2013-01-09 01:26:00,31.5,27.8,29.75,West,270,12.7,12.7,86,0.00,CLR,SKC,0.00,WeatherDisplay:10.37,2013-01-09 07:26:00,
2013-01-09 01:31:00,31.5,27.8,29.75,NW,315,12.7,12.7,86,0.00,CLR,SKC,0.00,WeatherDisplay:10.37,2013-01-09 07:31:00,
2013-01-09 01:36:00,31.5,27.8,29.76,NW,315,15.0,15.0,86,0.00,CLR,SKC,0.00,WeatherDisplay:10.37,2013-01-09 07:36:00,
2013-01-09 01:42:00,31.3,27.6,29.76,NW,315,17.3,17.3,86,0.00,CLR,SKC,0.00,WeatherDisplay:10.37,2013-01-09 07:42:00,
2013-01-09 01:47:00,31.3,27.6,29.76,NW,315,15.0,15.0,86,0.00,CLR,SKC,0.00,WeatherDisplay:10.37,2013-01-09 07:47:00,
2013-01-09 01:52:00,31.3,27.6,29.77,NW,315,13.0,13.0,86,0.00,CLR,SKC,0.00,WeatherDisplay:10.37,2013-01-09 07:52:00,
2013-01-09 01:57:00,31.3,27.3,29.77,West,270,13.8,13.8,85,0.00,CLR,SKC,0.00,WeatherDisplay:10.37,2013-01-09 07:57:00,
2013-01-09 02:02:00,31.1,27.4,29.77,NW,315,16.1,16.1,86,0.00,CLR,SKC,0.00,WeatherDisplay:10.37,2013-01-09 08:02:00,
2013-01-09 02:08:00,30.9,27.2,29.78,West,270,16.1,16.1,86,0.00,CLR,SKC,0.00,WeatherDisplay:10.37,2013-01-09 08:08:00,
2013-01-09 02:13:00,30.9,27.2,29.78,NW,315,19.6,19.6,86,0.00,CLR,SKC,0.00,WeatherDisplay:10.37,2013-01-09 08:13:00,
2013-01-09 02:18:00,30.7,27.0,29.79,West,270,15.0,15.0,86,0.00,CLR,SKC,0.00,WeatherDisplay:10.37,2013-01-09 08:18:00,
2013-01-09 02:23:00,30.6,26.6,29.79,West,270,18.4,18.4,85,0.00,CLR,SKC,0.00,WeatherDisplay:10.37,2013-01-09 08:23:00,
2013-01-09 02:29:00,30.4,26.7,29.78,NW,315,13.8,13.8,86,0.00,CLR,SKC,0.00,WeatherDisplay:10.37,2013-01-09 08:29:00,
2013-01-09 02:34:00,30.4,26.7,29.78,West,270,12.7,12.7,86,0.00,CLR,SKC,0.00,WeatherDisplay:10.37,2013-01-09 08:34:00,
2013-01-09 02:39:00,30.4,26.7,29.78,SW,225,10.4,10.4,86,0.00,CLR,SKC,0.00,WeatherDisplay:10.37,2013-01-09 08:39:00,
2013-01-09 02:44:00,30.6,26.9,29.78,NW,315,12.7,12.7,86,0.00,CLR,SKC,0.00,WeatherDisplay:10.37,2013-01-09 08:44:00,
2013-01-09 02:49:00,30.6,26.6,29.79,West,270,11.5,11.5,85,0.00,CLR,SKC,0.00,WeatherDisplay:10.37,2013-01-09 08:49:00,
2013-01-09 02:54:00,30.6,26.9,29.78,WNW,292,9.2,9.2,86,0.00,CLR,SKC,0.00,WeatherDisplay:10.37,2013-01-09 08:54:00,
2013-01-09 03:00:00,30.6,26.9,29.78,WNW,292,15.0,15.0,86,0.00,CLR,SKC,0.00,WeatherDisplay:10.37,2013-01-09 09:00:00,
2013-01-09 03:05:00,30.6,26.9,29.78,WNW,292,15.0,15.0,86,0.00,CLR,SKC,0.00,WeatherDisplay:10.37,2013-01-09 09:05:00,
2013-01-09 03:10:00,30.6,26.9,29.78,West,270,12.7,12.7,86,0.00,CLR,SKC,0.00,WeatherDisplay:10.37,2013-01-09 09:10:00,
2013-01-09 03:16:00,30.6,26.9,29.77,NW,315,17.3,17.3,86,0.00,CLR,SKC,0.00,WeatherDisplay:10.37,2013-01-09 09:16:00,
2013-01-09 03:21:00,30.6,26.9,29.78,West,270,17.3,17.3,86,0.00,CLR,SKC,0.00,WeatherDisplay:10.37,2013-01-09 09:21:00,
2013-01-09 03:26:00,30.7,27.0,29.78,West,270,16.1,16.1,86,0.00,CLR,SKC,0.00,WeatherDisplay:10.37,2013-01-09 09:26:00,
2013-01-09 03:31:00,30.6,26.6,29.78,SW,225,16.1,16.1,85,0.00,CLR,SKC,0.00,WeatherDisplay:10.37,2013-01-09 09:31:00,
2013-01-09 03:36:00,30.6,26.9,29.78,SW,225,17.3,17.3,86,0.00,CLR,SKC,0.00,WeatherDisplay:10.37,2013-01-09 09:36:00,
2013-01-09 03:42:00,30.4,26.4,29.79,West,270,21.9,21.9,85,0.00,CLR,SKC,0.00,WeatherDisplay:10.37,2013-01-09 09:42:00,
2013-01-09 03:47:00,30.4,26.7,29.78,West,270,21.9,21.9,86,0.00,CLR,SKC,0.00,WeatherDisplay:10.37,2013-01-09 09:47:00,
2013-01-09 03:52:00,30.4,26.7,29.78,NW,315,17.3,17.3,86,0.00,CLR,SKC,0.00,WeatherDisplay:10.37,2013-01-09 09:52:00,
2013-01-09 03:58:00,30.2,26.5,29.79,West,270,13.8,13.8,86,0.00,CLR,SKC,0.00,WeatherDisplay:10.37,2013-01-09 09:58:00,
2013-01-09 04:03:00,30.2,26.2,29.78,West,270,16.1,16.1,85,0.00,CLR,SKC,0.00,WeatherDisplay:10.37,2013-01-09 10:03:00,
2013-01-09 04:08:00,30.2,26.2,29.78,West,270,16.1,16.1,85,0.00,CLR,SKC,0.00,WeatherDisplay:10.37,2013-01-09 10:08:00,
2013-01-09 04:13:00,30.0,26.1,29.79,West,270,11.5,11.5,85,0.00,CLR,SKC,0.00,WeatherDisplay:10.37,2013-01-09 10:13:00,
2013-01-09 04:19:00,29.8,25.9,29.78,West,270,15.9,15.9,85,0.00,CLR,SKC,0.00,WeatherDisplay:10.37,2013-01-09 10:19:00,
2013-01-09 04:24:00,29.7,25.7,29.78,West,270,15.0,15.0,85,0.00,CLR,SKC,0.00,WeatherDisplay:10.37,2013-01-09 10:24:00,
2013-01-09 04:29:00,29.5,25.5,29.78,West,270,17.3,17.3,85,0.00,CLR,SKC,0.00,WeatherDisplay:10.37,2013-01-09 10:29:00,
2013-01-09 04:34:00,29.3,25.6,29.78,SW,225,15.0,15.0,86,0.00,CLR,SKC,0.00,WeatherDisplay:10.37,2013-01-09 10:34:00,
2013-01-09 04:40:00,29.3,25.6,29.78,West,270,15.0,15.0,86,0.00,CLR,SKC,0.00,WeatherDisplay:10.37,2013-01-09 10:40:00,
2013-01-09 04:45:00,29.3,25.6,29.78,West,270,11.5,11.5,86,0.00,CLR,SKC,0.00,WeatherDisplay:10.37,2013-01-09 10:45:00,
2013-01-09 04:50:00,29.3,25.6,29.78,West,270,13.8,13.8,86,0.00,CLR,SKC,0.00,WeatherDisplay:10.37,2013-01-09 10:50:00,
2013-01-09 04:55:00,29.3,25.6,29.78,WSW,248,12.7,12.7,86,0.00,CLR,SKC,0.00,WeatherDisplay:10.37,2013-01-09 10:55:00,
2013-01-09 05:00:00,29.1,25.5,29.78,West,270,8.1,8.1,86,0.00,CLR,SKC,0.00,WeatherDisplay:10.37,2013-01-09 11:00:00,
2013-01-09 05:05:00,29.1,25.5,29.78,West,270,8.1,8.1,86,0.00,CLR,SKC,0.00,WeatherDisplay:10.37,2013-01-09 11:05:00,
2013-01-09 05:11:00,28.8,25.1,29.78,West,270,10.4,10.4,86,0.00,CLR,SKC,0.00,WeatherDisplay:10.37,2013-01-09 11:11:00,
2013-01-09 05:16:00,28.9,25.3,29.78,SW,225,12.7,12.7,86,0.00,CLR,SKC,0.00,WeatherDisplay:10.37,2013-01-09 11:16:00,
2013-01-09 05:21:00,29.1,25.5,29.78,NW,315,15.0,15.0,86,0.00,CLR,SKC,0.00,WeatherDisplay:10.37,2013-01-09 11:21:00,
2013-01-09 05:26:00,29.3,25.6,29.78,West,270,19.6,19.6,86,0.00,CLR,SKC,0.00,WeatherDisplay:10.37,2013-01-09 11:26:00,
2013-01-09 05:32:00,29.3,25.4,29.78,NW,315,16.1,16.1,85,0.00,CLR,SKC,0.00,WeatherDisplay:10.37,2013-01-09 11:32:00,
2013-01-09 05:37:00,29.3,25.4,29.78,West,270,15.0,15.0,85,0.00,CLR,SKC,0.00,WeatherDisplay:10.37,2013-01-09 11:37:00,
2013-01-09 05:42:00,29.3,25.4,29.78,West,270,17.3,17.3,85,0.00,CLR,SKC,0.00,WeatherDisplay:10.37,2013-01-09 11:42:00,
2013-01-09 05:47:00,29.5,25.5,29.78,NW,315,17.3,17.3,85,0.00,CLR,SKC,0.00,WeatherDisplay:10.37,2013-01-09 11:47:00,
2013-01-09 05:52:00,29.5,25.5,29.78,NW,315,12.7,12.7,85,0.00,CLR,SKC,0.00,WeatherDisplay:10.37,2013-01-09 11:52:00,
2013-01-09 05:58:00,29.5,25.5,29.78,SW,225,12.7,12.7,85,0.00,CLR,SKC,0.00,WeatherDisplay:10.37,2013-01-09 11:58:00,
2013-01-09 06:03:00,29.5,25.5,29.78,SW,225,16.1,16.1,85,0.00,CLR,SKC,0.00,WeatherDisplay:10.37,2013-01-09 12:03:00,
2013-01-09 06:08:00,29.5,25.5,29.79,West,270,17.3,17.3,85,0.00,CLR,SKC,0.00,WeatherDisplay:10.37,2013-01-09 12:08:00,
2013-01-09 06:13:00,29.5,25.5,29.79,West,270,25.3,25.3,85,0.00,CLR,SKC,0.00,WeatherDisplay:10.37,2013-01-09 12:13:00,
2013-01-09 06:19:00,29.5,25.2,29.78,West,270,16.1,16.1,84,0.00,CLR,SKC,0.00,WeatherDisplay:10.37,2013-01-09 12:19:00,
2013-01-09 06:24:00,29.5,25.2,29.78,West,270,15.0,15.0,84,0.00,CLR,SKC,0.00,WeatherDisplay:10.37,2013-01-09 12:24:00,
2013-01-09 06:29:00,29.7,25.4,29.79,NW,315,24.2,24.2,84,0.00,CLR,SKC,0.00,WeatherDisplay:10.37,2013-01-09 12:29:00,
2013-01-09 06:34:00,29.7,25.4,29.79,West,270,19.6,19.6,84,0.00,CLR,SKC,0.00,WeatherDisplay:10.37,2013-01-09 12:34:00,
2013-01-09 06:40:00,29.8,25.3,29.79,NW,315,12.7,12.7,83,0.00,CLR,SKC,0.00,WeatherDisplay:10.37,2013-01-09 12:40:00,
2013-01-09 06:45:00,29.8,25.3,29.79,West,270,12.7,12.7,83,0.00,CLR,SKC,0.00,WeatherDisplay:10.37,2013-01-09 12:45:00,
2013-01-09 06:50:00,29.8,25.3,29.80,NW,315,15.0,15.0,83,0.00,CLR,SKC,0.00,WeatherDisplay:10.37,2013-01-09 12:50:00,
2013-01-09 06:55:00,30.0,25.2,29.80,West,270,17.3,17.3,82,0.00,CLR,SKC,0.00,WeatherDisplay:10.37,2013-01-09 12:55:00,
2013-01-09 07:00:00,30.2,25.4,29.80,NW,315,13.8,13.8,82,0.00,CLR,SKC,0.00,WeatherDisplay:10.37,2013-01-09 13:00:00,
2013-01-09 07:06:00,30.2,25.4,29.81,NW,315,13.8,13.8,82,0.00,CLR,SKC,0.00,WeatherDisplay:10.37,2013-01-09 13:06:00,
2013-01-09 07:11:00,30.4,25.2,29.81,NW,315,15.0,15.0,81,0.00,CLR,SKC,0.00,WeatherDisplay:10.37,2013-01-09 13:11:00,
2013-01-09 07:16:00,30.4,25.2,29.81,NW,315,20.7,20.7,81,0.00,CLR,SKC,0.00,WeatherDisplay:10.37,2013-01-09 13:16:00,
2013-01-09 07:26:00,30.6,25.1,29.82,North,0,19.6,0.0,80,0.00,CLR,SKC,0.00,WeatherDisplay:10.37,2013-01-09 13:26:00,
2013-01-09 07:31:00,30.6,25.1,29.82,NW,315,20.7,20.7,80,0.00,CLR,SKC,0.00,WeatherDisplay:10.37,2013-01-09 13:31:00,
2013-01-09 07:36:00,30.6,25.1,29.82,NW,315,19.6,19.6,80,0.00,CLR,SKC,0.00,WeatherDisplay:10.37,2013-01-09 13:36:00,
2013-01-09 07:41:00,30.7,25.3,29.83,NW,315,21.9,21.9,80,0.00,CLR,SKC,0.00,WeatherDisplay:10.37,2013-01-09 13:41:00,
2013-01-09 07:46:00,30.6,25.1,29.83,NW,315,25.3,25.3,80,0.00,CLR,SKC,0.00,WeatherDisplay:10.37,2013-01-09 13:46:00,
2013-01-09 07:51:00,30.7,24.7,29.83,NW,315,21.9,21.9,78,0.00,CLR,SKC,0.00,WeatherDisplay:10.37,2013-01-09 13:51:00,
2013-01-09 07:56:00,30.9,24.6,29.83,NW,315,20.7,20.7,77,0.00,CLR,SKC,0.00,WeatherDisplay:10.37,2013-01-09 13:56:00,
2013-01-09 08:01:00,30.9,24.2,29.84,NW,315,34.5,34.5,76,0.00,CLR,SKC,0.00,WeatherDisplay:10.37,2013-01-09 14:01:00,
2013-01-09 08:06:00,30.9,24.2,29.84,NW,315,17.3,17.3,76,0.00,CLR,SKC,0.00,WeatherDisplay:10.37,2013-01-09 14:06:00,
2013-01-09 08:11:00,30.9,24.2,29.85,NW,315,19.6,19.6,76,0.00,CLR,SKC,0.00,WeatherDisplay:10.37,2013-01-09 14:11:00,
2013-01-09 08:13:00,30.7,24.1,29.84,NW,315,20.7,20.7,76,0.00,CLR,SKC,0.00,WeatherDisplay:10.37,2013-01-09 14:13:00,
2013-01-09 08:16:00,30.7,24.1,29.84,NW,315,20.7,20.7,76,0.00,CLR,SKC,0.00,WeatherDisplay:10.37,2013-01-09 14:16:00,
2013-01-09 08:22:00,30.7,24.1,29.84,NW,315,20.7,20.7,76,0.00,CLR,SKC,0.00,WeatherDisplay:10.37,2013-01-09 14:22:00,
2013-01-09 14:59:00,30.9,23.9,29.85,North,0,20.7,0.0,75,0.00,CLR,SKC,0.00,WeatherDisplay:10.37,2013-01-09 20:59:00,
2013-01-09 15:05:00,36.1,22.8,30.16,West,270,11.5,11.5,58,0.00,CLR,SKC,0.00,WeatherDisplay:10.37,2013-01-09 21:05:00,
2013-01-09 15:10:00,36.5,22.7,30.16,NW,315,12.7,12.7,57,0.00,CLR,SKC,0.00,WeatherDisplay:10.37,2013-01-09 21:10:00,
2013-01-09 15:15:00,36.1,22.8,30.17,NW,315,11.5,11.5,58,0.00,CLR,SKC,0.00,WeatherDisplay:10.37,2013-01-09 21:15:00,
2013-01-09 15:20:00,36.3,22.9,30.17,West,270,10.4,10.4,58,0.00,CLR,SKC,0.00,WeatherDisplay:10.37,2013-01-09 21:20:00,
2013-01-09 15:25:00,36.0,22.6,30.17,NW,315,13.8,13.8,58,0.00,CLR,SKC,0.00,WeatherDisplay:10.37,2013-01-09 21:25:00,
2013-01-09 15:30:00,36.3,22.9,30.17,NW,315,9.2,9.2,58,0.00,CLR,SKC,0.00,WeatherDisplay:10.37,2013-01-09 21:30:00,
2013-01-09 15:36:00,36.5,22.7,30.17,NW,315,11.5,11.5,57,0.00,CLR,SKC,0.00,WeatherDisplay:10.37,2013-01-09 21:36:00,